Alpena, MI

8:15 AM EDT on June 28, 2017 (GMT -0400)
Alpena County Regional

Weather History for KAPN - November, 2011

Change the Weather History Date:

Tuesday, November 22, 2011

  Actual Average Record
Temperature  
Mean Temperature 29 °F 33 °F  
Max Temperature 39 °F 40 °F 62 °F (2012)
Min Temperature 19 °F 27 °F 3 °F (1929)
Degree Days  
Heating Degree Days 36 32  
Month to date heating degree days 538 613  
Since 1 July heating degree days 1327 1557  
Moisture  
Dew Point 26 °F    
Average Humidity 81    
Maximum Humidity 92    
Minimum Humidity 70    
Precipitation  
Precipitation 0.00 in 0.07 in 1.09 in (1952)
Month to date precipitation 1.65 1.56  
Year to date precipitation 34.98 25.87  
Snow  
Snow 0.00 in 0.30 in 5.50 in (2007)
Month to date snowfall 0.2 4.5  
Since 1 July snowfall 0.2 4.9  
Snow Depth 0.00 in    
Sea Level Pressure  
Sea Level Pressure 30.24 in    
Wind  
Wind Speed 6 mph (East)    
Max Wind Speed 17 mph    
Max Gust Speed 23 mph    
Visibility 10 miles    
Events      
T = Trace of Precipitation, MM = Missing Value Source: NWS Daily Summary

Daily Weather History Graph

Daily Weather History Graph

Search for Another Location

Airport or City:

Trip Planner

Search our weather history database for the weather conditions in past years. The results will help you decide how hot, cold, wet, or windy it might be!

Date:

Astronomy

Nov. 22, 2011 Rise Set
Actual Time 7:41 AM EST 4:59 PM EST
Civil Twilight 7:08 AM EST 5:31 PM EST
Nautical Twilight 6:32 AM EST 6:07 PM EST
Astronomical Twilight 5:57 AM EST 6:42 PM EST
Moon 4:24 AM EST (11/22) 3:02 PM EST (11/22)
Length of Visible Light 10h 22m
Length of Day
9h 18m
Waning Crescent, 9% of the Moon is Illuminated
Nov 22
Waning Crescent
Nov 25
New
Dec 2
First Quarter
Dec 10
Full
Dec 17
Last Quarter

Hourly Weather History & Observations

Time (EST) Temp. Windchill Dew Point Humidity Pressure Visibility Wind Dir Wind Speed Gust Speed Precip Events Conditions
12:54 AM 21.9 °F - 18.0 °F 85% 30.39 in 10.0 mi Calm Calm - N/A   Clear
1:51 AM 21.2 °F - 19.4 °F 93% 30.36 in 10.0 mi Calm Calm - N/A   Mostly Cloudy
1:54 AM 21.0 °F - 19.0 °F 92% 30.39 in 10.0 mi Calm Calm - N/A   Mostly Cloudy
2:54 AM 23.0 °F - 19.9 °F 88% 30.40 in 10.0 mi Calm Calm - N/A   Mostly Cloudy
3:02 AM 21.2 °F - 19.4 °F 93% 30.36 in 10.0 mi Calm Calm - N/A   Scattered Clouds
3:09 AM 21.2 °F - 19.4 °F 93% 30.37 in 10.0 mi Calm Calm - N/A   Mostly Cloudy
3:20 AM 21.2 °F - 19.4 °F 93% 30.36 in 10.0 mi Calm Calm - N/A   Scattered Clouds
3:54 AM 21.0 °F - 18.0 °F 88% 30.38 in 10.0 mi Calm Calm - N/A   Clear
4:40 AM 21.2 °F 16.4 °F 19.4 °F 93% 30.33 in 10.0 mi East 3.5 mph - N/A   Mostly Cloudy
4:54 AM 25.0 °F 20.7 °F 21.9 °F 88% 30.36 in 10.0 mi East 3.5 mph - N/A   Mostly Cloudy
5:12 AM 24.8 °F - 21.2 °F 86% 30.33 in 10.0 mi Calm Calm - N/A   Partly Cloudy
5:43 AM 24.8 °F 20.5 °F 23.0 °F 93% 30.32 in 10.0 mi ENE 3.5 mph - N/A   Mostly Cloudy
5:54 AM 28.9 °F 23.9 °F 26.1 °F 89% 30.35 in 10.0 mi East 4.6 mph - N/A   Overcast
6:54 AM 32.0 °F 27.5 °F 30.9 °F 96% 30.34 in 10.0 mi NE 4.6 mph - N/A   Mostly Cloudy
7:54 AM 34.0 °F 28.0 °F 30.0 °F 85% 30.32 in 10.0 mi ESE 6.9 mph - N/A   Mostly Cloudy
8:54 AM 37.0 °F 29.8 °F 28.9 °F 73% 30.32 in 10.0 mi ESE 10.4 mph - N/A   Overcast
9:54 AM 37.9 °F 30.0 °F 30.0 °F 73% 30.31 in 10.0 mi SE 12.7 mph 18.4 mph N/A   Overcast
10:54 AM 39.0 °F 31.8 °F 30.0 °F 70% 30.30 in 10.0 mi ESE 11.5 mph - N/A   Overcast
11:54 AM 37.9 °F 29.6 °F 30.0 °F 73% 30.27 in 10.0 mi ESE 13.8 mph - N/A   Overcast
12:54 PM 37.0 °F 29.3 °F 28.9 °F 73% 30.24 in 10.0 mi ESE 11.5 mph 21.9 mph N/A   Overcast
1:54 PM 37.0 °F 29.3 °F 28.9 °F 73% 30.21 in 10.0 mi East 11.5 mph - N/A   Overcast
2:54 PM 37.0 °F 29.8 °F 30.0 °F 76% 30.17 in 10.0 mi ESE 10.4 mph - N/A   Overcast
3:54 PM 37.0 °F 29.3 °F 30.0 °F 76% 30.16 in 10.0 mi ESE 11.5 mph 19.6 mph N/A   Overcast
4:40 PM 35.6 °F 28.0 °F 30.2 °F 81% 30.08 in 10.0 mi East 10.4 mph - N/A   Scattered Clouds
4:54 PM 36.0 °F 29.6 °F 30.0 °F 79% 30.10 in 10.0 mi East 8.1 mph - N/A   Partly Cloudy
5:54 PM 36.0 °F 30.3 °F 30.0 °F 79% 30.09 in 10.0 mi ENE 6.9 mph - N/A   Partly Cloudy
6:54 PM 36.0 °F 30.3 °F 30.0 °F 79% 30.09 in 10.0 mi ENE 6.9 mph - N/A   Partly Cloudy
7:39 PM 35.6 °F 29.9 °F 30.2 °F 81% 30.04 in 10.0 mi ENE 6.9 mph - N/A   Mostly Cloudy
7:54 PM 36.0 °F 30.3 °F 30.9 °F 82% 30.06 in 10.0 mi East 6.9 mph - N/A   Scattered Clouds
8:54 PM 36.0 °F 32.1 °F 30.9 °F 82% 30.04 in 10.0 mi ENE 4.6 mph - N/A   Clear
9:54 PM 35.1 °F 32.2 °F 30.9 °F 85% 30.02 in 10.0 mi NE 3.5 mph - N/A   Scattered Clouds
10:54 PM 35.1 °F 31.0 °F 30.9 °F 85% 30.01 in 10.0 mi NE 4.6 mph - N/A   Mostly Cloudy
11:54 PM 34.0 °F - 30.0 °F 85% 29.99 in 10.0 mi Calm Calm - N/A   Clear